This is the latest recevied weather packets stored in our database for station/object HB9BTL-13. If no packets are shown the sender has not sent any weather packets the latest 10 day(s).
| Time | Temp. | Humidity | Pressure | Rain* | Wind** | Luminosity | Snow |
|---|---|---|---|---|---|---|---|
| 1777418687 | 15° C | 87% | 1016.4 hPa | - | - | - | - |
| 1777417781 | 15° C | 86% | 1016.4 hPa | - | - | - | - |
| 1777416876 | 15° C | 85% | 1016.5 hPa | - | - | - | - |
| 1777415971 | 15.56° C | 83% | 1016.7 hPa | - | - | - | - |
| 1777415065 | 15.56° C | 80% | 1016.7 hPa | - | - | - | - |
| 1777414160 | 15.56° C | 81% | 1016.8 hPa | - | - | - | - |
| 1777413255 | 15.56° C | 81% | 1016.8 hPa | - | - | - | - |
| 1777412349 | 15.56° C | 84% | 1016.7 hPa | - | - | - | - |
| 1777411444 | 15.56° C | 85% | 1016.8 hPa | - | - | - | - |
| 1777410538 | 16.11° C | 83% | 1016.8 hPa | - | - | - | - |
| 1777409633 | 16.11° C | 80% | 1016.7 hPa | - | - | - | - |
| 1777408727 | 16.11° C | 80% | 1016.7 hPa | - | - | - | - |
| 1777407822 | 16.11° C | 80% | 1016.6 hPa | - | - | - | - |
| 1777406916 | 16.11° C | 80% | 1016.6 hPa | - | - | - | - |
| 1777406011 | 16.11° C | 79% | 1016.6 hPa | - | - | - | - |
| 1777405106 | 16.67° C | 80% | 1016.4 hPa | - | - | - | - |
| 1777404200 | 16.67° C | 79% | 1016.4 hPa | - | - | - | - |
| 1777403295 | 16.67° C | 78% | 1016.2 hPa | - | - | - | - |
| 1777402390 | 16.67° C | 76% | 1016.1 hPa | - | - | - | - |
| 1777401485 | 17.22° C | 74% | 1016.2 hPa | - | - | - | - |
| 1777400579 | 17.22° C | 74% | 1016.1 hPa | - | - | - | - |
| 1777399674 | 17.22° C | 70% | 1015.9 hPa | - | - | - | - |
| 1777398768 | 17.78° C | 70% | 1015.8 hPa | - | - | - | - |
| 1777397863 | 17.78° C | 68% | 1015.8 hPa | - | - | - | - |
| 1777396957 | 18.33° C | 65% | 1015.8 hPa | - | - | - | - |
* Rain since midnight (hover to see other rain measurements)
** Current wind speed in m/s (hover to see current wind gust speed)